This demonstration page uses our WeatherBlox Daily Observations layout. Learn more.

Left ArrowRight Arrow

36.19886, -115.1175

Hourly Observations for May 7, 2020

Temp ( °F °C ) Dew Point ( °F °C ) Humidity (%) Winds ( mph kmh ) Pressure ( in mb ) Visibility ( mi km ) Precip ( " mm )
12:53 am 00:53 Clear 82 27.8 10 -12.2 6 6 N 10 17 29.87 1011 10 16 N/A
1:53 am 01:53 Clear 82 27.8 7 -13.9 5 5 NNW 14 22 29.86 1011 10 16 N/A
2:53 am 02:53 Clear 80 26.7 7 -13.9 6 6 N 12 19 29.87 1012 10 16 N/A
3:13 am 03:13 Clear 79 26.1 6 -14.4 6 6 NNW 12 19 29.79 1009 10 16 N/A
3:53 am 03:53 Clear 78 25.6 7 -13.9 6 6 N 14 22 29.89 1012 10 16 N/A
4:53 am 04:53 Clear 76 24.4 9 -12.8 7 7 N 16 26 29.91 1013 10 16 N/A
5:53 am 05:53 Sunny 77 25 12 -11.1 8 8 NW 17 28 29.93 1013 10 16 N/A
6:53 am 06:53 Sunny 76 24.4 17 -8.3 11 11 N 12 19 29.96 1015 10 16 N/A
7:53 am 07:53 Sunny 79 26.1 20 -6.7 11 11 NNW 17 28 29.98 1015 10 16 N/A
8:53 am 08:53 Sunny 81 27.2 20 -6.7 10 10 N 13 20 30.00 1016 10 16 N/A
9:53 am 09:53 Sunny 83 28.3 20 -6.7 10 10 E 6 9 30.00 1016 10 16 N/A
10:53 am 10:53 Sunny 84 28.9 19 -7.2 9 9 N N/A 30.00 1016 10 16 N/A
11:53 am 11:53 Sunny 87 30.6 19 -7.2 8 8 N N/A 29.98 1015 10 16 N/A
12:53 pm 12:53 Sunny 90 32.2 20 -6.7 8 8 NE 7 11 29.96 1015 10 16 N/A
1:53 pm 13:53 Sunny 90 32.2 20 -6.7 8 8 VRB 5 7 29.94 1014 10 16 N/A
2:53 pm 14:53 Sunny 92 33.3 20 -6.7 7 7 ENE 8 13 29.92 1013 10 16 N/A
3:53 pm 15:53 Sunny 93 33.9 20 -6.7 7 7 ENE 6 9 29.89 1012 10 16 N/A
4:53 pm 16:53 Sunny 93 33.9 20 -6.7 7 7 N N/A 29.88 1012 10 16 N/A
5:53 pm 17:53 Sunny 93 33.9 20 -6.7 7 7 ENE 6 9 29.86 1011 10 16 N/A
6:53 pm 18:53 Sunny 91 32.8 20 -6.7 7 7 ENE 7 11 29.85 1011 10 16 N/A
7:53 pm 19:53 Clear 88 31.1 20 -6.7 8 8 E 8 13 29.86 1011 10 16 N/A
8:53 pm 20:53 Clear 86 30 19 -7.2 8 8 ENE 13 20 29.88 1012 10 16 N/A
9:53 pm 21:53 Clear 83 28.3 19 -7.2 9 9 ENE 13 20 29.91 1013 10 16 N/A
10:53 pm 22:53 Clear 81 27.2 18 -7.8 9 9 ESE 12 19 29.92 1013 10 16 N/A
11:53 pm 23:53 Clear 79 26.1 19 -7.2 10 10 SSW 9 15 29.93 1014 10 16 N/A

Powered by AerisWeather